EW2964 Weather Reports


time (UTC)temp
C
wind
direction
speed
KPH
gust
KPH
rain 1hr
cm
rain 24hr
cm
rain mn
cm
humidity
%
barometer
mb
20260510070008 6 88 0.0 1.6 0.00 0.00 0.00 95 1013.0
20260510065505 7 88 0.0 1.6 0.00 0.00 0.00 95 1013.0
20260510065004 7 88 0.0 3.2 0.00 0.00 0.00 95 1012.9
20260510064504 7 88 0.0 3.2 0.00 0.00 0.00 95 1012.9
20260510064003 7 88 0.0 3.2 0.00 0.00 0.00 95 1012.9
20260510063505 7 88 0.0 3.2 0.00 0.00 0.00 95 1013.0
20260510063015 7 88 0.0 3.2 0.00 0.00 0.00 95 1013.0
20260510062507 7 88 1.6 3.2 0.00 0.00 0.00 95 1012.9
20260510062007 6 72 0.0 3.2 0.00 0.00 0.00 95 1013.0
20260510061513 6 72 0.0 3.2 0.00 0.00 0.00 95 1013.0
20260510061007 7 72 0.0 4.8 0.00 0.00 0.00 94 1013.0
20260510060502 7 157 1.6 4.8 0.00 0.00 0.00 94 1013.0
20260510060003 7 84 0.0 4.8 0.00 0.00 0.00 95 1013.2
20260510055503 7 109 3.2 4.8 0.00 0.00 0.00 95 1013.1
20260510055003 7 179 0.0 3.2 0.00 0.00 0.00 95 1013.2
20260510054505 6 56 0.0 0.0 0.00 0.00 0.00 95 1013.2
20260510054003 6 93 0.0 0.0 0.00 0.00 0.00 94 1013.2
20260510053504 6 93 0.0 0.0 0.00 0.00 0.00 94 1013.3
20260510053009 6 93 0.0 0.0 0.00 0.00 0.00 95 1013.4
20260510052506 7 94 0.0 0.0 0.00 0.00 0.00 95 1013.4
20260510052004 7 52 0.0 0.0 0.00 0.00 0.00 95 1013.5
20260510051513 6 52 0.0 0.0 0.00 0.00 0.00 94 1013.5
20260510051003 6 52 0.0 0.0 0.00 0.00 0.00 94 1013.6
20260510050505 6 52 0.0 0.0 0.00 0.00 0.00 94 1013.5
20260510050018 7 52 0.0 0.0 0.00 0.00 0.00 94 1013.5
20260510045509 7 314 0.0 0.0 0.00 0.00 0.00 94 1013.4
20260510045010 7 284 0.0 0.0 0.00 0.00 0.00 94 1013.4
20260510044504 7 283 0.0 0.0 0.00 0.00 0.00 94 1013.5
20260510044003 7 301 0.0 0.0 0.00 0.00 0.00 94 1013.5
20260510043503 7 301 0.0 0.0 0.00 0.00 0.00 94 1013.4
20260510043004 7 269 0.0 0.0 0.00 0.00 0.00 94 1013.3
20260510042507 7 309 0.0 0.0 0.00 0.00 0.00 93 1013.3
20260510042003 7 309 0.0 0.0 0.00 0.00 0.00 93 1013.2
20260510041508 7 309 0.0 0.0 0.00 0.00 0.00 93 1013.1
20260510041003 7 309 0.0 0.0 0.00 0.00 0.00 93 1013.0
20260510040504 7 294 0.0 0.0 0.00 0.00 0.00 94 1013.0
20260510040013 7 294 0.0 0.0 0.00 0.00 0.00 93 1013.0
20260510035504 7 294 0.0 1.6 0.00 0.00 0.00 93 1013.0
20260510035005 7 294 0.0 3.2 0.00 0.00 0.00 92 1013.0
20260510034522 7 280 0.0 3.2 0.00 0.00 0.00 92 1013.0
20260510034006 7 301 0.0 3.2 0.00 0.00 0.00 92 1013.0
20260510033510 7 301 0.0 3.2 0.00 0.00 0.00 92 1013.0
20260510033023 7 301 1.6 3.2 0.00 0.00 0.00 91 1013.0
20260510032503 7 301 0.0 3.2 0.00 0.00 0.00 91 1013.0
20260510032003 8 301 1.6 3.2 0.00 0.00 0.00 91 1012.9
20260510031510 8 301 0.0 0.0 0.00 0.00 0.00 91 1013.0
20260510031003 8 301 0.0 3.2 0.00 0.00 0.00 91 1013.0
20260510030503 8 301 0.0 3.2 0.00 0.00 0.00 90 1013.0
20260510030018 8 301 0.0 3.2 0.00 0.00 0.00 90 1013.0
20260510025506 8 275 0.0 1.6 0.00 0.00 0.00 89 1013.0
20260510025004 8 275 0.0 4.8 0.00 0.00 0.00 89 1013.0
20260510024513 8 275 0.0 6.4 0.00 0.00 0.00 89 1013.0
20260510024006 8 299 1.6 6.4 0.00 0.00 0.00 89 1013.0
20260510023506 8 313 3.2 6.4 0.00 0.00 0.00 88 1012.9
20260510023020 9 313 3.2 4.8 0.00 0.00 0.00 87 1012.9
20260510022507 9 278 0.0 0.0 0.00 0.00 0.00 86 1012.9
20260510022007 9 278 0.0 1.6 0.00 0.00 0.00 85 1012.9
20260510021527 10 278 0.0 3.2 0.00 0.00 0.00 84 1012.8
20260510021007 10 278 0.0 4.8 0.00 0.00 0.00 83 1012.6
20260510020502 10 305 3.2 9.7 0.00 0.00 0.00 83 1012.6
20260510020010 10 288 3.2 9.7 0.00 0.00 0.00 82 1012.6
20260510015503 10 290 3.2 9.7 0.00 0.00 0.00 82 1012.6
20260510015005 10 277 4.8 9.7 0.00 0.00 0.00 82 1012.5
20260510014514 11 294 3.2 9.7 0.00 0.00 0.00 81 1012.5
20260510014004 11 282 3.2 9.7 0.00 0.00 0.00 81 1012.3
20260510013508 11 271 4.8 9.7 0.00 0.00 0.00 81 1012.2
20260510013016 11 289 4.8 9.7 0.00 0.00 0.00 81 1012.0
20260510012506 11 290 3.2 6.4 0.00 0.00 0.00 81 1011.8
20260510012007 11 289 3.2 6.4 0.00 0.00 0.00 81 1011.8
20260510011524 11 296 3.2 4.8 0.00 0.00 0.00 80 1011.7
20260510011006 11 292 3.2 8.0 0.00 0.00 0.00 79 1011.6
20260510010508 12 299 4.8 8.0 0.00 0.00 0.00 77 1011.6
20260510010023 12 317 3.2 6.4 0.00 0.00 0.00 75 1011.4
20260510005508 12 265 3.2 6.4 0.00 0.00 0.00 73 1011.2
20260510005003 13 275 1.6 6.4 0.00 0.00 0.00 71 1011.2
20260510004511 13 269 3.2 6.4 0.00 0.00 0.00 71 1011.1
20260510004004 13 300 3.2 4.8 0.00 0.00 0.00 69 1010.9
20260510003505 14 302 1.6 4.8 0.00 0.00 0.00 67 1010.9
20260510003024 14 224 0.0 6.4 0.00 0.00 0.00 65 1010.9
20260510002505 15 221 1.6 6.4 0.00 0.00 0.00 64 1010.8
20260510002006 15 261 1.6 4.8 0.00 0.00 0.00 63 1010.7
20260510001524 15 257 1.6 4.8 0.00 0.00 0.00 62 1010.7
20260510001007 15 221 1.6 4.8 0.00 0.00 0.00 62 1010.7
20260510000507 16 220 1.6 6.4 0.00 0.00 0.00 61 1010.7
20260510000023 16 256 0.0 9.7 0.00 0.00 0.00 58 1010.6
20260509235506 16 297 3.2 16.1 0.00 0.00 0.00 57 1010.7
20260509235009 16 305 6.4 16.1 0.00 0.00 0.00 56 1010.6
20260509234534 17 311 4.8 14.5 0.00 0.00 0.00 55 1010.6
20260509234008 17 291 4.8 14.5 0.00 0.00 0.00 54 1010.6
20260509233508 18 315 1.6 14.5 0.00 0.00 0.00 54 1010.6
20260509233011 18 328 3.2 12.9 0.00 0.00 0.00 54 1010.4
20260509232505 18 288 3.2 8.0 0.00 0.00 0.00 53 1010.3
20260509232010 18 322 3.2 11.3 0.00 0.00 0.00 52 1010.3
20260509231510 18 305 1.6 14.5 0.00 0.00 0.00 53 1010.3
20260509231004 18 305 4.8 14.5 0.00 0.00 0.00 53 1010.3
20260509230502 17 330 3.2 14.5 0.00 0.00 0.00 53 1010.5
20260509230004 17 321 4.8 14.5 0.00 0.00 0.00 54 1010.6
20260509225505 17 308 3.2 12.9 0.00 0.00 0.00 53 1010.6
20260509225003 17 310 6.4 12.9 0.00 0.00 0.00 53 1010.6
20260509224504 17 277 3.2 19.3 0.00 0.00 0.00 54 1010.7
20260509224003 17 286 3.2 19.3 0.00 0.00 0.00 55 1010.7
20260509223506 17 346 4.8 11.3 0.00 0.00 0.00 53 1010.6
20260509223007 17 292 1.6 9.7 0.00 0.00 0.00 53 1010.6
20260509222503 17 269 3.2 12.9 0.00 0.00 0.00 53 1010.6
20260509222003 17 242 3.2 16.1 0.00 0.00 0.00 53 1010.6
20260509221511 17 340 6.4 16.1 0.00 0.00 0.00 54 1010.6
20260509221007 17 302 6.4 16.1 0.00 0.00 0.00 53 1010.7
20260509220507 17 305 6.4 16.1 0.00 0.00 0.00 53 1010.7
20260509220008 17 311 4.8 14.5 0.00 0.00 0.00 52 1010.7
20260509215506 17 325 3.2 14.5 0.00 0.00 0.00 51 1010.7
20260509215003 17 275 6.4 19.3 0.00 0.00 0.00 50 1010.7
20260509214502 17 310 8.0 19.3 0.00 0.00 0.00 50 1010.7
20260509214007 17 333 9.7 17.7 0.00 0.00 0.00 50 1010.8
20260509213502 17 271 3.2 20.9 0.00 0.00 0.00 51 1010.7
20260509213008 17 349 6.4 20.9 0.00 0.00 0.00 50 1010.6
20260509212503 17 241 8.0 19.3 0.00 0.00 0.00 49 1010.5
20260509212007 18 315 8.0 16.1 0.00 0.00 0.00 50 1010.4
20260509211511 18 254 4.8 22.5 0.00 0.00 0.00 50 1010.3
20260509211005 18 272 6.4 22.5 0.00 0.00 0.00 50 1010.2
20260509210505 18 349 6.4 22.5 0.00 0.00 0.00 50 1010.1
20260509210015 18 328 9.7 22.5 0.00 0.00 0.00 49 1010.0
20260509205508 18 314 8.0 22.5 0.00 0.00 0.00 53 1010.0
20260509205007 18 233 6.4 19.3 0.00 0.00 0.00 50 1009.9
20260509204523 18 294 8.0 19.3 0.00 0.00 0.00 51 1009.9
20260509204003 18 279 4.8 17.7 0.00 0.00 0.00 51 1009.8
20260509203502 18 286 6.4 17.7 0.00 0.00 0.00 50 1009.8
20260509203009 18 12 3.2 16.1 0.00 0.00 0.00 50 1009.8
20260509202503 18 240 8.0 16.1 0.00 0.00 0.00 49 1009.7
20260509202003 18 299 3.2 17.7 0.00 0.00 0.00 51 1009.6
20260509201508 18 336 9.7 20.9 0.00 0.00 0.00 51 1009.6
20260509201008 18 248 9.7 20.9 0.00 0.00 0.00 50 1009.6
20260509200506 18 234 4.8 16.1 0.00 0.00 0.00 50 1009.7
20260509200015 18 290 6.4 17.7 0.00 0.00 0.00 49 1009.6
20260509195506 18 276 9.7 24.1 0.00 0.00 0.00 49 1009.7
20260509195007 18 271 6.4 24.1 0.00 0.00 0.00 49 1009.6
20260509194519 18 263 11.3 24.1 0.00 0.00 0.00 47 1009.7
20260509194012 18 315 4.8 20.9 0.00 0.00 0.00 48 1009.8
20260509193507 18 237 8.0 22.5 0.00 0.00 0.00 46 1009.7
20260509193023 19 280 11.3 22.5 0.00 0.00 0.00 45 1009.7
20260509192503 20 271 11.3 22.5 0.00 0.00 0.00 45 1009.7
20260509192003 19 322 8.0 20.9 0.00 0.00 0.00 46 1009.6
20260509191513 18 174 8.0 20.9 0.00 0.00 0.00 46 1009.7
20260509191005 18 306 11.3 19.3 0.00 0.00 0.00 46 1009.8
20260509190505 18 280 9.7 22.5 0.00 0.00 0.00 46 1009.8
20260509190015 18 254 8.0 27.4 0.00 0.00 0.00 45 1009.9
20260509185505 18 336 17.7 27.4 0.00 0.00 0.00 45 1010.0
20260509185005 18 257 12.9 32.2 0.00 0.00 0.00 45 1010.0
20260509184517 18 259 11.3 32.2 0.00 0.00 0.00 44 1010.0
20260509184008 18 232 6.4 17.7 0.00 0.00 0.00 47 1010.0
20260509183506 18 266 8.0 17.7 0.00 0.00 0.00 45 1009.9
20260509183020 18 227 4.8 16.1 0.00 0.00 0.00 47 1009.9
20260509182506 17 252 4.8 19.3 0.00 0.00 0.00 47 1010.0
20260509182009 17 248 8.0 19.3 0.00 0.00 0.00 48 1010.0
20260509181523 17 312 4.8 19.3 0.00 0.00 0.00 51 1010.0
20260509181010 17 185 4.8 19.3 0.00 0.00 0.00 50 1010.0
20260509180503 17 284 6.4 22.5 0.00 0.00 0.00 49 1010.1
20260509180008 17 180 8.0 22.5 0.00 0.00 0.00 50 1010.2
20260509175505 17 279 1.6 14.5 0.00 0.00 0.00 55 1010.2
20260509175006 17 342 3.2 17.7 0.00 0.00 0.00 52 1010.2
20260509174514 17 167 6.4 17.7 0.00 0.00 0.00 53 1010.3
20260509174005 17 202 4.8 14.5 0.00 0.00 0.00 54 1010.3
20260509173505 17 308 4.8 14.5 0.00 0.00 0.00 54 1010.3
20260509173020 17 100 6.4 12.9 0.00 0.00 0.00 54 1010.3
20260509172509 17 324 3.2 12.9 0.00 0.00 0.00 56 1010.4
20260509172010 17 244 4.8 12.9 0.00 0.00 0.00 56 1010.7
20260509171522 17 114 4.8 12.9 0.00 0.00 0.00 56 1010.6
20260509171014 16 254 1.6 11.3 0.00 0.00 0.00 57 1010.7
20260509170510 16 117 4.8 12.9 0.00 0.00 0.00 56 1010.7
20260509170036 16 232 6.4 12.9 0.00 0.00 0.00 56 1010.8
20260509165509 16 156 1.6 11.3 0.00 0.00 0.00 57 1010.8
20260509165005 16 266 0.0 11.3 0.00 0.00 0.00 57 1010.9
20260509164513 16 276 3.2 12.9 0.00 0.00 0.00 59 1010.9
20260509164009 16 220 4.8 12.9 0.00 0.00 0.00 57 1010.9
20260509163505 16 202 1.6 12.9 0.00 0.00 0.00 58 1011.0
20260509163018 16 197 6.4 12.9 0.00 0.00 0.00 57 1010.9
20260509162507 16 237 4.8 6.4 0.00 0.00 0.00 56 1011.0
20260509162006 16 305 1.6 6.4 0.00 0.00 0.00 58 1010.9
20260509161527 15 294 3.2 6.4 0.00 0.00 0.00 59 1010.9
20260509161011 15 309 1.6 11.3 0.00 0.00 0.00 57 1010.9
20260509160506 15 242 3.2 11.3 0.00 0.00 0.00 56 1010.9
20260509160032 15 239 1.6 8.0 0.00 0.00 0.00 58 1010.9
20260509155510 15 196 1.6 6.4 0.00 0.00 0.00 57 1011.0
20260509155008 15 213 1.6 12.9 0.00 0.00 0.00 56 1010.9
20260509154526 15 311 4.8 12.9 0.00 0.00 0.00 56 1011.0
20260509154010 15 270 3.2 6.4 0.00 0.00 0.00 56 1011.0
20260509153512 15 259 3.2 8.0 0.00 0.00 0.00 57 1011.1
20260509153014 15 352 3.2 19.3 0.00 0.00 0.00 58 1011.1
20260509152505 15 347 6.4 19.3 0.00 0.00 0.00 57 1011.1
20260509152006 15 323 4.8 24.1 0.00 0.00 0.00 58 1011.1
20260509151518 15 264 8.0 24.1 0.00 0.00 0.00 56 1011.1
20260509151007 15 323 11.3 19.3 0.00 0.00 0.00 59 1011.2
20260509150509 15 305 9.7 30.6 0.00 0.00 0.00 57 1011.2
20260509150023 15 315 11.3 30.6 0.00 0.00 0.00 57 1011.2
20260509145506 15 311 9.7 19.3 0.00 0.00 0.00 58 1011.2
20260509145006 15 315 8.0 19.3 0.00 0.00 0.00 57 1011.0
20260509144531 15 319 12.9 19.3 0.00 0.00 0.00 56 1010.9
20260509144010 15 310 12.9 19.3 0.00 0.00 0.00 56 1011.0
20260509143508 15 267 4.8 16.1 0.00 0.00 0.00 55 1010.7
20260509143027 15 254 6.4 16.1 0.00 0.00 0.00 54 1010.7
20260509142501 16 200 4.8 17.7 0.00 0.00 0.00 53 1010.7
20260509142002 16 287 6.4 17.7 0.00 0.00 0.00 55 1010.7
20260509141503 16 286 6.4 12.9 0.00 0.00 0.00 55 1010.5
20260509141003 15 233 3.2 14.5 0.00 0.00 0.00 54 1010.6
20260509140502 15 271 8.0 14.5 0.00 0.00 0.00 56 1010.6
20260509140002 15 242 1.6 11.3 0.00 0.00 0.00 56 1010.5
20260509135506 15 273 3.2 14.5 0.00 0.00 0.00 57 1010.5
20260509135002 14 313 4.8 16.1 0.00 0.00 0.00 57 1010.6
20260509134506 14 219 4.8 16.1 0.00 0.00 0.00 60 1010.6
20260509134002 13 223 8.0 14.5 0.00 0.00 0.00 64 1010.7
20260509133503 13 158 4.8 11.3 0.00 0.00 0.00 67 1010.8
20260509133005 13 144 1.6 11.3 0.00 0.00 0.00 65 1011.0
20260509132502 13 135 4.8 8.0 0.00 0.00 0.00 65 1011.1
20260509132004 12 114 3.2 9.7 0.00 0.00 0.00 67 1011.2
20260509131507 12 117 4.8 9.7 0.00 0.00 0.00 67 1011.2
20260509131006 11 138 4.8 8.0 0.00 0.00 0.00 69 1011.3
20260509130502 11 132 3.2 6.4 0.00 0.00 0.00 72 1011.4
20260509130003 11 131 4.8 6.4 0.00 0.00 0.00 72 1011.3
20260509125512 11 155 1.6 4.8 0.00 0.00 0.00 73 1011.3
20260509125003 11 98 1.6 6.4 0.00 0.00 0.00 74 1011.4
20260509124505 10 136 3.2 9.7 0.00 0.00 0.00 75 1011.4
20260509124003 10 130 3.2 9.7 0.00 0.00 0.00 74 1011.3
20260509123503 10 113 3.2 6.4 0.00 0.00 0.00 74 1011.3
20260509123016 10 103 1.6 4.8 0.00 0.00 0.00 75 1011.4
20260509122503 10 122 1.6 3.2 0.00 0.00 0.00 76 1011.4
20260509122004 10 59 0.0 3.2 0.00 0.00 0.00 76 1011.3
20260509121507 10 57 0.0 3.2 0.00 0.00 0.00 78 1011.3
20260509121006 9 80 0.0 3.2 0.00 0.00 0.00 77 1011.4
20260509120505 9 146 0.0 4.8 0.00 0.00 0.00 79 1011.3
20260509120007 9 146 0.0 6.4 0.00 0.00 0.00 80 1011.4
20260509115502 8 155 1.6 6.4 0.00 0.00 0.00 80 1011.4
20260509115003 8 150 1.6 6.4 0.00 0.00 0.00 81 1011.4
20260509114503 8 136 3.2 8.0 0.00 0.00 0.00 81 1011.5
20260509114005 8 132 3.2 9.7 0.00 0.00 0.00 83 1011.6
20260509113503 8 146 4.8 8.0 0.00 0.00 0.00 82 1011.5
20260509113006 8 137 1.6 4.8 0.00 0.00 0.00 83 1011.6
20260509112503 8 313 0.0 3.2 0.00 0.00 0.00 85 1011.7
20260509112005 8 313 0.0 3.2 0.00 0.00 0.00 84 1011.6
20260509111507 8 313 0.0 0.0 0.00 0.00 0.00 85 1011.6
20260509111006 8 313 0.0 1.6 0.00 0.00 0.00 85 1011.5
20260509110504 8 313 0.0 1.6 0.00 0.00 0.00 85 1011.4
20260509110011 8 313 0.0 1.6 0.00 0.00 0.00 85 1011.4
20260509105505 8 313 0.0 1.6 0.00 0.00 0.00 85 1011.4
20260509105007 8 313 0.0 3.2 0.00 0.00 0.00 85 1011.4
20260509104510 8 313 0.0 3.2 0.00 0.00 0.00 84 1011.3
20260509104002 8 303 0.0 3.2 0.00 0.00 0.00 85 1011.3
20260509103503 8 310 0.0 3.2 0.00 0.00 0.00 84 1011.2
20260509103003 8 310 0.0 4.8 0.00 0.00 0.00 85 1011.1
20260509102503 8 310 1.6 4.8 0.00 0.00 0.00 85 1011.1
20260509102004 8 305 1.6 4.8 0.00 0.00 0.00 86 1011.1
20260509101508 8 305 1.6 4.8 0.00 0.00 0.00 84 1011.2
20260509101005 8 311 0.0 0.0 0.00 0.00 0.00 84 1011.2
20260509100502 8 311 0.0 0.0 0.00 0.00 0.00 83 1011.1
20260509100011 8 311 0.0 0.0 0.00 0.00 0.00 84 1011.1
20260509095506 8 311 0.0 0.0 0.00 0.00 0.00 83 1011.0
20260509095004 8 311 0.0 0.0 0.00 0.00 0.00 82 1011.1
20260509094511 8 311 0.0 1.6 0.00 0.00 0.00 82 1011.1
20260509094007 8 311 0.0 3.2 0.00 0.00 0.00 82 1011.2
20260509093509 8 311 0.0 3.2 0.00 0.00 0.00 82 1011.3
20260509093015 8 311 1.6 4.8 0.00 0.00 0.00 81 1011.2
20260509092505 8 305 1.6 6.4 0.00 0.00 0.00 81 1011.2
20260509092008 9 305 1.6 6.4 0.00 0.00 0.00 80 1011.3
20260509091504 8 279 3.2 6.4 0.00 0.00 0.00 78 1011.3
20260509091003 8 275 1.6 4.8 0.00 0.00 0.00 80 1011.3
20260509090502 8 298 1.6 4.8 0.00 0.00 0.00 83 1011.4
20260509090008 8 311 1.6 4.8 0.00 0.00 0.00 83 1011.3
20260509085502 8 311 3.2 4.8 0.00 0.00 0.00 83 1011.2
20260509085006 8 309 1.6 4.8 0.00 0.00 0.00 81 1011.3
20260509084514 8 309 1.6 4.8 0.00 0.00 0.00 81 1011.4
20260509084009 8 296 0.0 1.6 0.00 0.00 0.00 81 1011.3
20260509083510 8 290 0.0 1.6 0.00 0.00 0.00 81 1011.4
20260509083017 8 306 0.0 3.2 0.00 0.00 0.00 81 1011.3
20260509082506 8 306 0.0 3.2 0.00 0.00 0.00 81 1011.3
20260509082007 9 306 0.0 3.2 0.00 0.00 0.00 81 1011.5
20260509081517 9 306 0.0 4.8 0.00 0.00 0.00 80 1011.5
20260509081008 9 306 0.0 4.8 0.00 0.00 0.00 80 1011.6
20260509080507 8 302 3.2 4.8 0.00 0.00 0.00 80 1011.7
20260509080021 8 282 1.6 4.8 0.00 0.00 0.00 81 1011.7
20260509075503 8 302 1.6 4.8 0.00 0.00 0.00 82 1011.5
20260509075004 8 293 1.6 4.8 0.00 0.00 0.00 82 1011.5
20260509074512 8 293 1.6 6.4 0.00 0.00 0.00 83 1011.5
20260509074006 8 306 3.2 6.4 0.00 0.00 0.00 83 1011.5
20260509073509 8 302 1.6 3.2 0.00 0.00 0.00 82 1011.5
20260509073029 8 302 0.0 3.2 0.00 0.00 0.00 82 1011.5
20260509072509 8 302 1.6 3.2 0.00 0.00 0.00 82 1011.5
20260509072007 8 302 1.6 4.8 0.00 0.00 0.00 82 1011.5
20260509071521 8 302 0.0 4.8 0.00 0.00 0.00 82 1011.5
20260509071008 8 302 0.0 3.2 0.00 0.00 0.00 82 1011.5
20260509070508 8 298 0.0 3.2 0.00 0.00 0.00 81 1011.6